User: anonymous   Login
Location: Unspecified
(44.4377°N, 88.0525°W)
Time: 22:13:15
(UTC-06:00)
Language:

CZ-3 Stage 3 - Orbit

View from above orbital plane
View from above orbital plane
View from above satellite
View from above satellite

Ground track
Ground track

The orbit data is extracted from the following two-line orbital elements,

1 14900U 84035B   21065.99813289 -.00000032  00000-0  19503-3 0  9994
2 14900  30.8071 296.5402 7173456   9.6888 358.9887  2.33926394246567
Epoch (UTC): 06 March 2021 23:57:18
Eccentricity: 0.7173456
inclination: 30.8071°
perigee height: 397 km
apogee height: 34787 km
right ascension of ascending node: 296.5402°
argument of perigee: 9.6888°
revolutions per day: 2.33926394
mean anomaly at epoch: 358.9887°
orbit number at epoch: 24656

The dashed part of the orbit path shows where the satellite is in the earth's shadow,  

DLR